• In Austria
  • List of Countries
  • For 7 days
  • Water Temperature
  • Satellite Maps
  • Weather Map
  • News
  • Weather Widgets
  • user-avatar
    Login

    Hourly Weather Solhan

    Today, 21 October, Sunday

    Time Temperature Precipitation Wind Pressure Humidity
    00:00 +11°C° 0.1 mm 0 mps 636 mmHg 74%
    01:00 +11°C° 0.1 mm 1 mps 635 mmHg 76%
    02:00 +11°C° 0.1 mm 1 mps 635 mmHg 79%
    03:00 +10°C° 0.1 mm 1 mps 635 mmHg 81%
    04:00 +10°C° 0 mm 1 mps 635 mmHg 82%
    05:00 +10°C° 0 mm 1 mps 635 mmHg 84%
    06:00 +9°C° 0 mm 1 mps 634 mmHg 85%
    07:00 +11°C° 0 mm 1 mps 635 mmHg 76%
    08:00 +13°C° 0 mm 1 mps 636 mmHg 68%
    09:00 +15°C° 0 mm 2 mps 637 mmHg 60%
    10:00 +16°C° 0 mm 2 mps 637 mmHg 56%
    11:00 +17°C° 0 mm 3 mps 637 mmHg 52%
    12:00 +18°C° 0 mm 3 mps 637 mmHg 48%
    13:00 +18°C° 0.2 mm 3 mps 637 mmHg 48%
    14:00 +18°C° 0.2 mm 3 mps 637 mmHg 48%
    15:00 +18°C° 0.2 mm 4 mps 636 mmHg 48%
    16:00 +17°C° 0.2 mm 3 mps 636 mmHg 53%
    17:00 +16°C° 0.2 mm 2 mps 636 mmHg 58%
    18:00 +14°C° 0.2 mm 2 mps 635 mmHg 64%
    19:00 +14°C° 0.2 mm 1 mps 636 mmHg 68%
    20:00 +13°C° 0.2 mm 1 mps 636 mmHg 72%
    21:00 +13°C° 0.2 mm 1 mps 636 mmHg 76%
    22:00 +13°C° 0.5 mm 1 mps 636 mmHg 78%
    23:00 +12°C° 0.5 mm 1 mps 636 mmHg 80%

    Tomorrow, 22 October, Monday

    Time Temperature Precipitation Wind Pressure Humidity
    00:00 +12°C° 0.5 mm 1 mps 636 mmHg 82%
    01:00 +12°C° 0.3 mm 1 mps 636 mmHg 84%
    02:00 +12°C° 0.3 mm 1 mps 636 mmHg 86%
    03:00 +11°C° 0.3 mm 1 mps 636 mmHg 89%
    04:00 +11°C° 0.1 mm 1 mps 636 mmHg 90%
    05:00 +9°C° 0.1 mm 0 mps 635 mmHg 91%
    06:00 +9°C° 0.1 mm 0 mps 635 mmHg 92%
    07:00 +10°C° 0 mm 0 mps 636 mmHg 85%
    08:00 +13°C° 0 mm 1 mps 637 mmHg 78%
    09:00 +14°C° 0 mm 1 mps 637 mmHg 71%
    10:00 +15°C° 0.1 mm 1 mps 638 mmHg 65%
    11:00 +16°C° 0.1 mm 2 mps 638 mmHg 58%
    12:00 +18°C° 0.1 mm 2 mps 638 mmHg 52%
    13:00 +18°C° 0.2 mm 3 mps 638 mmHg 51%
    14:00 +18°C° 0.2 mm 3 mps 638 mmHg 50%
    15:00 +18°C° 0.2 mm 4 mps 637 mmHg 49%
    16:00 +17°C° 0.2 mm 3 mps 637 mmHg 56%
    17:00 +14°C° 0.2 mm 3 mps 637 mmHg 63%
    18:00 +14°C° 0.2 mm 2 mps 636 mmHg 70%
    19:00 +13°C° 0.1 mm 2 mps 636 mmHg 75%
    20:00 +13°C° 0.1 mm 1 mps 636 mmHg 80%
    21:00 +12°C° 0.1 mm 1 mps 637 mmHg 85%
    22:00 +11°C° 0 mm 1 mps 636 mmHg 87%
    23:00 +11°C° 0 mm 1 mps 636 mmHg 88%

    Day after tomorrow, 23 October, Tuesday

    Time Temperature Precipitation Wind Pressure Humidity
    00:00 +11°C° 0 mm 1 mps 636 mmHg 90%
    01:00 +10°C° 0 mm 1 mps 636 mmHg 91%
    02:00 +10°C° 0 mm 1 mps 636 mmHg 91%
    03:00 +10°C° 0 mm 1 mps 636 mmHg 92%
    04:00 +10°C° 0 mm 1 mps 636 mmHg 92%
    05:00 +9°C° 0 mm 1 mps 636 mmHg 93%
    06:00 +9°C° 0 mm 1 mps 636 mmHg 93%
    07:00 +11°C° 0 mm 1 mps 637 mmHg 85%
    08:00 +12°C° 0 mm 1 mps 637 mmHg 78%
    09:00 +14°C° 0 mm 1 mps 638 mmHg 71%
    10:00 +15°C° 0 mm 2 mps 638 mmHg 64%
    11:00 +16°C° 0 mm 3 mps 638 mmHg 57%
    12:00 +17°C° 0 mm 4 mps 638 mmHg 50%
    13:00 +17°C° 0.2 mm 4 mps 638 mmHg 50%
    14:00 +17°C° 0.2 mm 4 mps 637 mmHg 50%
    15:00 +16°C° 0.2 mm 5 mps 637 mmHg 51%
    16:00 +15°C° 0.6 mm 4 mps 637 mmHg 59%
    17:00 +14°C° 0.6 mm 3 mps 636 mmHg 67%
    18:00 +13°C° 0.6 mm 2 mps 636 mmHg 75%
    19:00 +13°C° 0.4 mm 2 mps 636 mmHg 78%
    20:00 +13°C° 0.4 mm 2 mps 636 mmHg 81%
    21:00 +12°C° 0.4 mm 1 mps 636 mmHg 85%
    22:00 +12°C° 0.2 mm 1 mps 636 mmHg 85%
    23:00 +12°C° 0.2 mm 1 mps 636 mmHg 86%

    24 October, Wednesday

    Time Temperature Precipitation Wind Pressure Humidity
    00:00 +12°C° 0.2 mm 1 mps 636 mmHg 87%
    01:00 +12°C° 0.2 mm 1 mps 635 mmHg 87%
    02:00 +11°C° 0.2 mm 1 mps 635 mmHg 88%
    03:00 +11°C° 0.2 mm 1 mps 635 mmHg 89%
    04:00 +11°C° 0.4 mm 1 mps 635 mmHg 90%
    05:00 +11°C° 0.4 mm 1 mps 634 mmHg 91%
    06:00 +11°C° 0.4 mm 1 mps 634 mmHg 92%
    07:00 +10°C° 0.6 mm 2 mps 634 mmHg 88%
    08:00 +12°C° 0.6 mm 2 mps 635 mmHg 84%
    09:00 +13°C° 0.6 mm 2 mps 635 mmHg 80%
    10:00 +12°C° 0.8 mm 3 mps 634 mmHg 79%
    11:00 +12°C° 0.8 mm 4 mps 634 mmHg 77%
    12:00 +13°C° 0.8 mm 4 mps 634 mmHg 76%
    13:00 +13°C° 1.2 mm 4 mps 633 mmHg 77%
    14:00 +13°C° 1.2 mm 4 mps 633 mmHg 79%
    15:00 +12°C° 1.2 mm 4 mps 632 mmHg 80%
    16:00 +12°C° 2.7 mm 4 mps 632 mmHg 83%
    17:00 +12°C° 2.7 mm 3 mps 631 mmHg 86%
    18:00 +11°C° 2.7 mm 3 mps 631 mmHg 88%
    19:00 +11°C° 2.4 mm 3 mps 631 mmHg 89%
    20:00 +11°C° 2.4 mm 3 mps 631 mmHg 89%
    21:00 +11°C° 2.4 mm 4 mps 631 mmHg 89%
    22:00 +11°C° 1 mm 4 mps 631 mmHg 89%
    23:00 +11°C° 1 mm 4 mps 631 mmHg 89%

    25 October, Thursday

    Time Temperature Precipitation Wind Pressure Humidity
    00:00 +11°C° 1 mm 4 mps 630 mmHg 89%
    01:00 +11°C° 1.1 mm 3 mps 630 mmHg 90%
    02:00 +10°C° 1.1 mm 3 mps 629 mmHg 90%
    03:00 +10°C° 1.1 mm 3 mps 629 mmHg 91%
    04:00 +10°C° 1.7 mm 3 mps 629 mmHg 91%
    05:00 +10°C° 1.7 mm 3 mps 629 mmHg 91%
    06:00 +10°C° 1.7 mm 3 mps 628 mmHg 92%
    07:00 +10°C° 1.1 mm 3 mps 628 mmHg 90%
    08:00 +11°C° 1.1 mm 4 mps 628 mmHg 88%
    09:00 +10°C° 1.1 mm 5 mps 628 mmHg 86%
    10:00 +11°C° 0.9 mm 6 mps 628 mmHg 82%
    11:00 +11°C° 0.9 mm 7 mps 628 mmHg 79%
    12:00 +12°C° 0.9 mm 8 mps 628 mmHg 76%
    13:00 +11°C° 1.1 mm 7 mps 627 mmHg 76%
    14:00 +11°C° 1.1 mm 7 mps 627 mmHg 77%
    15:00 +11°C° 1.1 mm 7 mps 626 mmHg 77%
    16:00 +10°C° 1.4 mm 7 mps 626 mmHg 80%
    17:00 +10°C° 1.4 mm 6 mps 626 mmHg 84%
    18:00 +9°C° 1.4 mm 5 mps 626 mmHg 87%
    19:00 +9°C° 1.1 mm 5 mps 626 mmHg 87%
    20:00 +9°C° 1.1 mm 5 mps 626 mmHg 87%
    21:00 +9°C° 1.1 mm 6 mps 626 mmHg 87%
    22:00 +9°C° 1.5 mm 6 mps 626 mmHg 87%
    23:00 +9°C° 1.5 mm 6 mps 626 mmHg 87%

    26 October, Friday

    Time Temperature Precipitation Wind Pressure Humidity
    00:00 +9°C° 1.5 mm 6 mps 626 mmHg 87%
    01:00 +9°C° 2.1 mm 6 mps 626 mmHg 88%
    02:00 +9°C° 2.1 mm 6 mps 626 mmHg 89%
    03:00 +9°C° 2.1 mm 5 mps 626 mmHg 90%
    04:00 +9°C° 1.9 mm 6 mps 626 mmHg 90%
    05:00 +9°C° 1.9 mm 6 mps 627 mmHg 90%
    06:00 +9°C° 1.9 mm 6 mps 627 mmHg 90%
    07:00 +9°C° 0.9 mm 6 mps 627 mmHg 87%
    08:00 +9°C° 0.9 mm 7 mps 628 mmHg 84%
    09:00 +9°C° 0.9 mm 7 mps 628 mmHg 81%
    10:00 +9°C° 0.3 mm 7 mps 629 mmHg 76%
    11:00 +10°C° 0.3 mm 7 mps 629 mmHg 72%
    12:00 +10°C° 0.3 mm 7 mps 629 mmHg 67%
    13:00 +10°C° 0.5 mm 6 mps 629 mmHg 67%
    14:00 +9°C° 0.5 mm 6 mps 629 mmHg 67%
    15:00 +9°C° 0.5 mm 6 mps 629 mmHg 67%
    16:00 +8°C° 1.8 mm 5 mps 629 mmHg 72%
    17:00 +9°C° 1.8 mm 3 mps 629 mmHg 77%
    18:00 +8°C° 1.8 mm 2 mps 629 mmHg 82%
    19:00 +7°C° 1.6 mm 2 mps 630 mmHg 83%
    20:00 +7°C° 1.6 mm 2 mps 630 mmHg 85%
    21:00 +7°C° 1.6 mm 2 mps 630 mmHg 87%
    22:00 +6°C° 1 mm 2 mps 631 mmHg 86%
    23:00 +5°C° 1 mm 3 mps 631 mmHg 85%
    Show more